| time (UTC) | temp C | wind direction | speed KPH | gust KPH | rain 1hr cm | rain 24hr cm | rain mn cm | humidity % | barometer mb |
| 20260502151849 | 5 | 263 | 1.6 | 3.2 | 0.00 | 0.00 | 0.00 | 83 | 1009.8 |
| 20260502151345 | 5 | 258 | 4.8 | 4.8 | 0.00 | 0.00 | 0.00 | 84 | 1009.7 |
| 20260502150843 | 5 | 272 | 1.6 | 1.6 | 0.00 | 0.00 | 0.00 | 85 | 1009.9 |
| 20260502150339 | 5 | 264 | 4.8 | 4.8 | 0.00 | 0.00 | 0.00 | 86 | 1009.9 |
| 20260502130728 | 3 | 252 | 0.0 | 1.6 | 0.00 | 0.00 | 0.00 | 88 | 1009.4 |
| 20260502130225 | 3 | 260 | 0.0 | 1.6 | 0.00 | 0.00 | 0.00 | 87 | 1009.3 |
| 20260502123711 | 3 | 266 | 3.2 | 3.2 | 0.00 | 0.00 | 0.00 | 88 | 1009.0 |
| 20260502123208 | 3 | 270 | 4.8 | 4.8 | 0.00 | 0.00 | 0.00 | 88 | 1008.9 |
| 20260502122705 | 2 | 244 | 4.8 | 4.8 | 0.00 | 0.00 | 0.00 | 87 | 1008.9 |
| 20260502122201 | 2 | 275 | 1.6 | 3.2 | 0.00 | 0.00 | 0.00 | 87 | 1009.0 |
| 20260502121659 | 3 | 323 | 4.8 | 4.8 | 0.00 | 0.00 | 0.00 | 87 | 1009.1 |
| 20260502121157 | 3 | 259 | 0.0 | 1.6 | 0.00 | 0.00 | 0.00 | 89 | 1008.9 |
| 20260502120653 | 2 | 253 | 0.0 | 1.6 | 0.00 | 0.00 | 0.00 | 93 | 1008.6 |
| 20260502120150 | 2 | 259 | 4.8 | 4.8 | 0.00 | 0.00 | 0.00 | 94 | 1008.7 |
| 20260502115648 | 2 | 265 | 1.6 | 1.6 | 0.00 | 0.00 | 0.00 | 95 | 1008.8 |
| 20260502115144 | 1 | 258 | 0.0 | 0.0 | 0.00 | 0.00 | 0.00 | 96 | 1008.8 |
| 20260502114640 | 1 | 257 | 0.0 | 0.0 | 0.00 | 0.00 | 0.00 | 97 | 1008.7 |
| 20260502114138 | 1 | 255 | 0.0 | 0.0 | 0.00 | 0.00 | 0.00 | 98 | 1008.7 |
| 20260502113635 | 1 | 253 | 1.6 | 1.6 | 0.00 | 0.00 | 0.00 | 98 | 1008.8 |
| 20260502113133 | 1 | 256 | 0.0 | 0.0 | 0.00 | 0.00 | 0.00 | 98 | 1008.8 |
| 20260502112630 | 1 | 254 | 0.0 | 0.0 | 0.00 | 0.00 | 0.00 | 98 | 1008.6 |
| 20260502112128 | 1 | 254 | 0.0 | 0.0 | 0.00 | 0.00 | 0.00 | 98 | 1008.6 |
| 20260502111625 | 0 | 254 | 0.0 | 0.0 | 0.00 | 0.00 | 0.00 | 98 | 1008.5 |
| 20260502111122 | 0 | 254 | 0.0 | 0.0 | 0.00 | 0.00 | 0.00 | 98 | 1008.6 |
| 20260502110620 | 0 | 254 | 0.0 | 0.0 | 0.00 | 0.00 | 0.00 | 98 | 1008.7 |
| 20260502110117 | 0 | 254 | 0.0 | 0.0 | 0.00 | 0.00 | 0.00 | 98 | 1008.6 |
| 20260502105614 | 0 | 254 | 0.0 | 0.0 | 0.00 | 0.00 | 0.00 | 98 | 1008.4 |
| 20260502105111 | 0 | 254 | 0.0 | 0.0 | 0.00 | 0.00 | 0.00 | 98 | 1008.6 |
| 20260502104609 | 0 | 254 | 0.0 | 0.0 | 0.00 | 0.00 | 0.00 | 98 | 1008.5 |
| 20260502104106 | 0 | 254 | 0.0 | 0.0 | 0.00 | 0.00 | 0.00 | 98 | 1008.5 |
| 20260502103603 | 0 | 254 | 0.0 | 0.0 | 0.00 | 0.00 | 0.00 | 98 | 1008.5 |
| 20260502103102 | 0 | 254 | 0.0 | 0.0 | 0.00 | 0.00 | 0.00 | 98 | 1008.5 |
| 20260502102557 | 0 | 254 | 0.0 | 0.0 | 0.00 | 0.00 | 0.00 | 98 | 1008.5 |
| 20260502102055 | 0 | 254 | 0.0 | 0.0 | 0.00 | 0.00 | 0.00 | 98 | 1008.4 |
| 20260502101553 | 0 | 254 | 0.0 | 0.0 | 0.00 | 0.00 | 0.00 | 98 | 1008.3 |
| 20260502101051 | 0 | 254 | 0.0 | 0.0 | 0.00 | 0.00 | 0.00 | 98 | 1008.4 |
| 20260502100549 | 0 | 254 | 0.0 | 0.0 | 0.00 | 0.00 | 0.00 | 98 | 1008.3 |
| 20260502091524 | 1 | 261 | 0.0 | 0.0 | 0.00 | 0.00 | 0.00 | 97 | 1008.1 |
| 20260502091021 | 1 | 261 | 0.0 | 0.0 | 0.00 | 0.00 | 0.00 | 97 | 1008.1 |
| 20260502090518 | 1 | 257 | 0.0 | 0.0 | 0.00 | 0.00 | 0.00 | 97 | 1008.3 |
| 20260502071413 | 3 | 257 | 0.0 | 0.0 | 0.00 | 0.00 | 0.00 | 97 | 1007.7 |
| 20260502070911 | 3 | 255 | 0.0 | 0.0 | 0.00 | 0.00 | 0.00 | 97 | 1008.0 |
| 20260502070408 | 3 | 257 | 1.6 | 1.6 | 0.00 | 0.00 | 0.00 | 97 | 1008.1 |
| 20260502065907 | 3 | 254 | 0.0 | 0.0 | 0.00 | 0.00 | 0.00 | 97 | 1008.0 |
| 20260502065405 | 3 | 250 | 3.2 | 3.2 | 0.00 | 0.00 | 0.00 | 98 | 1008.0 |
| 20260502064903 | 2 | 254 | 1.6 | 1.6 | 0.00 | 0.00 | 0.00 | 98 | 1008.1 |
| 20260502064400 | 2 | 253 | 0.0 | 0.0 | 0.00 | 0.00 | 0.00 | 97 | 1008.2 |
| 20260502063856 | 2 | 254 | 0.0 | 0.0 | 0.00 | 0.00 | 0.00 | 97 | 1008.1 |
| 20260502063355 | 2 | 254 | 0.0 | 0.0 | 0.00 | 0.00 | 0.00 | 97 | 1008.0 |
| 20260502062852 | 2 | 254 | 0.0 | 0.0 | 0.00 | 0.00 | 0.00 | 97 | 1008.0 |
| 20260502062349 | 2 | 254 | 0.0 | 0.0 | 0.00 | 0.00 | 0.00 | 97 | 1008.0 |
| 20260502061848 | 2 | 254 | 0.0 | 0.0 | 0.00 | 0.00 | 0.00 | 97 | 1008.4 |
| 20260502061345 | 2 | 254 | 0.0 | 0.0 | 0.00 | 0.00 | 0.00 | 97 | 1008.3 |
| 20260502060841 | 2 | 254 | 0.0 | 0.0 | 0.00 | 0.00 | 0.00 | 96 | 1008.4 |
| 20260502060336 | 2 | 253 | 0.0 | 0.0 | 0.00 | 0.00 | 0.00 | 96 | 1008.4 |
| 20260502055834 | 2 | 253 | 1.6 | 1.6 | 0.00 | 0.00 | 0.00 | 96 | 1008.6 |
| 20260502055332 | 2 | 257 | 0.0 | 0.0 | 0.00 | 0.00 | 0.00 | 96 | 1008.3 |
| 20260502054831 | 2 | 257 | 0.0 | 1.6 | 0.00 | 0.00 | 0.00 | 96 | 1008.6 |
| 20260502054328 | 2 | 258 | 0.0 | 0.0 | 0.00 | 0.00 | 0.00 | 96 | 1008.4 |
| 20260502053826 | 3 | 259 | 0.0 | 0.0 | 0.00 | 0.00 | 0.00 | 95 | 1008.5 |
| 20260502053323 | 3 | 258 | 0.0 | 0.0 | 0.00 | 0.00 | 0.00 | 95 | 1008.4 |
| 20260502052820 | 3 | 258 | 0.0 | 0.0 | 0.00 | 0.00 | 0.00 | 95 | 1008.5 |
| 20260502052318 | 3 | 259 | 0.0 | 0.0 | 0.00 | 0.00 | 0.00 | 95 | 1008.7 |
| 20260502051815 | 3 | 259 | 0.0 | 0.0 | 0.00 | 0.00 | 0.00 | 95 | 1008.6 |
| 20260502051315 | 3 | 259 | 0.0 | 0.0 | 0.00 | 0.00 | 0.00 | 94 | 1008.3 |
| 20260502050810 | 3 | 259 | 0.0 | 0.0 | 0.00 | 0.00 | 0.00 | 94 | 1008.8 |
| 20260502050306 | 3 | 259 | 0.0 | 0.0 | 0.00 | 0.00 | 0.00 | 94 | 1008.8 |
| 20260502045804 | 3 | 259 | 0.0 | 0.0 | 0.00 | 0.00 | 0.00 | 94 | 1008.8 |
| 20260502045300 | 3 | 259 | 0.0 | 0.0 | 0.00 | 0.00 | 0.00 | 93 | 1008.7 |
| 20260502044758 | 3 | 259 | 0.0 | 0.0 | 0.00 | 0.00 | 0.00 | 94 | 1008.7 |
| 20260502044254 | 4 | 260 | 0.0 | 0.0 | 0.00 | 0.00 | 0.00 | 94 | 1009.0 |
| 20260502043751 | 4 | 262 | 1.6 | 1.6 | 0.00 | 0.00 | 0.00 | 94 | 1008.8 |
| 20260502043249 | 4 | 253 | 0.0 | 0.0 | 0.00 | 0.00 | 0.00 | 94 | 1008.6 |
| 20260502042748 | 4 | 253 | 0.0 | 0.0 | 0.00 | 0.00 | 0.00 | 94 | 1008.8 |
| 20260502042245 | 4 | 253 | 0.0 | 0.0 | 0.00 | 0.00 | 0.00 | 94 | 1008.7 |
| 20260502041743 | 4 | 253 | 0.0 | 0.0 | 0.00 | 0.00 | 0.00 | 94 | 1008.6 |
| 20260502041240 | 4 | 253 | 0.0 | 0.0 | 0.00 | 0.00 | 0.00 | 94 | 1008.7 |
| 20260502040737 | 4 | 253 | 0.0 | 0.0 | 0.00 | 0.00 | 0.00 | 94 | 1008.6 |
| 20260502040234 | 4 | 253 | 0.0 | 0.0 | 0.00 | 0.00 | 0.00 | 94 | 1008.7 |
| 20260502035729 | 4 | 253 | 0.0 | 0.0 | 0.00 | 0.89 | 0.89 | 94 | 1008.8 |
| 20260502035227 | 4 | 253 | 0.0 | 0.0 | 0.00 | 0.89 | 0.89 | 93 | 1008.7 |
| 20260502034724 | 4 | 253 | 0.0 | 0.0 | 0.00 | 0.89 | 0.89 | 93 | 1009.0 |
| 20260502034222 | 4 | 253 | 0.0 | 0.0 | 0.00 | 0.89 | 0.89 | 93 | 1008.7 |
| 20260502033720 | 4 | 253 | 0.0 | 0.0 | 0.00 | 0.89 | 0.89 | 93 | 1008.7 |
| 20260502033218 | 4 | 253 | 0.0 | 0.0 | 0.00 | 0.89 | 0.89 | 93 | 1008.8 |
| 20260502032714 | 4 | 252 | 1.6 | 1.6 | 0.00 | 0.89 | 0.89 | 93 | 1008.8 |
| 20260502032210 | 4 | 253 | 0.0 | 0.0 | 0.00 | 0.89 | 0.89 | 94 | 1008.8 |
| 20260502031708 | 4 | 253 | 0.0 | 1.6 | 0.00 | 0.89 | 0.89 | 94 | 1008.7 |
| 20260502031206 | 4 | 254 | 0.0 | 0.0 | 0.00 | 0.89 | 0.89 | 94 | 1008.7 |
| 20260502030704 | 4 | 254 | 0.0 | 0.0 | 0.00 | 0.89 | 0.89 | 94 | 1008.7 |
| 20260502030202 | 5 | 253 | 1.6 | 1.6 | 0.00 | 0.89 | 0.89 | 95 | 1008.7 |
| 20260502025658 | 4 | 254 | 0.0 | 0.0 | 0.00 | 0.89 | 0.89 | 95 | 1008.7 |
| 20260502025156 | 4 | 256 | 0.0 | 0.0 | 0.00 | 0.89 | 0.89 | 95 | 1008.7 |
| 20260502024654 | 4 | 256 | 0.0 | 0.0 | 0.00 | 0.89 | 0.89 | 95 | 1008.6 |
| 20260502024152 | 4 | 256 | 0.0 | 0.0 | 0.00 | 0.89 | 0.89 | 95 | 1008.8 |
| 20260502023650 | 4 | 256 | 0.0 | 0.0 | 0.00 | 0.89 | 0.89 | 95 | 1008.6 |
| 20260502023147 | 4 | 256 | 0.0 | 0.0 | 0.00 | 0.89 | 0.89 | 95 | 1008.9 |
| 20260502022644 | 4 | 257 | 0.0 | 0.0 | 0.00 | 0.89 | 0.89 | 95 | 1008.5 |
| 20260502022141 | 4 | 257 | 0.0 | 0.0 | 0.00 | 0.89 | 0.89 | 95 | 1008.7 |
| 20260502021638 | 4 | 257 | 0.0 | 0.0 | 0.00 | 0.89 | 0.89 | 94 | 1008.7 |
| 20260502021135 | 4 | 257 | 0.0 | 0.0 | 0.00 | 0.89 | 0.89 | 94 | 1008.6 |
| 20260502020633 | 4 | 257 | 0.0 | 0.0 | 0.00 | 0.89 | 0.89 | 94 | 1008.6 |
| 20260502020129 | 4 | 257 | 0.0 | 0.0 | 0.00 | 0.89 | 0.89 | 94 | 1008.4 |
| 20260502015627 | 4 | 257 | 0.0 | 0.0 | 0.00 | 0.89 | 0.89 | 94 | 1008.6 |
| 20260502015123 | 4 | 257 | 0.0 | 0.0 | 0.00 | 0.89 | 0.89 | 94 | 1008.4 |
| 20260502014621 | 4 | 257 | 0.0 | 0.0 | 0.00 | 0.89 | 0.89 | 93 | 1008.3 |
| 20260502014118 | 4 | 257 | 0.0 | 0.0 | 0.00 | 0.89 | 0.89 | 93 | 1008.2 |
| 20260502013614 | 4 | 257 | 0.0 | 0.0 | 0.00 | 0.89 | 0.89 | 92 | 1008.1 |
| 20260502013109 | 4 | 256 | 0.0 | 0.0 | 0.00 | 0.89 | 0.89 | 91 | 1008.2 |
| 20260502012607 | 5 | 257 | 0.0 | 0.0 | 0.00 | 0.89 | 0.89 | 91 | 1008.1 |
| 20260502012105 | 5 | 257 | 0.0 | 0.0 | 0.00 | 0.89 | 0.89 | 91 | 1008.2 |
| 20260502011601 | 5 | 257 | 0.0 | 0.0 | 0.00 | 0.89 | 0.89 | 91 | 1007.8 |
| 20260502011057 | 5 | 257 | 0.0 | 0.0 | 0.00 | 0.89 | 0.89 | 91 | 1007.8 |
| 20260502010555 | 5 | 257 | 0.0 | 0.0 | 0.00 | 0.89 | 0.89 | 91 | 1007.7 |
| 20260502010051 | 5 | 257 | 0.0 | 0.0 | 0.00 | 0.89 | 0.89 | 91 | 1008.1 |
| 20260502005549 | 5 | 257 | 0.0 | 0.0 | 0.00 | 0.89 | 0.89 | 91 | 1008.0 |
| 20260502005047 | 5 | 257 | 0.0 | 0.0 | 0.00 | 0.89 | 0.89 | 91 | 1008.0 |
| 20260502004542 | 5 | 257 | 0.0 | 0.0 | 0.00 | 0.89 | 0.89 | 91 | 1008.0 |
| 20260502004039 | 5 | 257 | 0.0 | 0.0 | 0.00 | 0.89 | 0.89 | 91 | 1008.0 |
| 20260502003537 | 5 | 257 | 0.0 | 0.0 | 0.00 | 0.89 | 0.89 | 90 | 1008.0 |
| 20260502003034 | 5 | 257 | 0.0 | 0.0 | 0.00 | 0.89 | 0.89 | 89 | 1007.8 |
| 20260502002530 | 5 | 257 | 0.0 | 0.0 | 0.00 | 0.89 | 0.89 | 89 | 1007.7 |
| 20260502002027 | 5 | 257 | 0.0 | 0.0 | 0.00 | 0.89 | 0.89 | 88 | 1007.4 |
| 20260502001525 | 5 | 257 | 0.0 | 0.0 | 0.00 | 0.89 | 0.89 | 88 | 1007.5 |
| 20260502001022 | 5 | 257 | 0.0 | 0.0 | 0.00 | 0.89 | 0.89 | 88 | 1007.3 |
| 20260502000521 | 6 | 257 | 0.0 | 0.0 | 0.00 | 0.89 | 0.89 | 88 | 1007.2 |
| 20260502000017 | 6 | 257 | 0.0 | 0.0 | 0.00 | 0.89 | 0.89 | 87 | 1007.3 |
| 20260501235513 | 6 | 257 | 0.0 | 0.0 | 0.00 | 0.89 | 0.89 | 86 | 1007.1 |
| 20260501235009 | 6 | 256 | 1.6 | 1.6 | 0.00 | 0.89 | 0.89 | 84 | 1007.0 |
| 20260501234504 | 6 | 261 | 0.0 | 0.0 | 0.00 | 0.89 | 0.89 | 81 | 1006.7 |
| 20260501234003 | 6 | 262 | 0.0 | 0.0 | 0.00 | 0.89 | 0.89 | 77 | 1007.0 |
| 20260501233501 | 6 | 263 | 1.6 | 1.6 | 0.00 | 0.89 | 0.89 | 77 | 1006.9 |
| 20260501232956 | 6 | 265 | 3.2 | 3.2 | 0.00 | 0.89 | 0.89 | 76 | 1006.7 |
| 20260501232453 | 6 | 269 | 0.0 | 1.6 | 0.00 | 0.89 | 0.89 | 78 | 1006.9 |
| 20260501231950 | 6 | 272 | 1.6 | 3.2 | 0.00 | 0.89 | 0.89 | 77 | 1006.6 |
| 20260501231449 | 6 | 265 | 0.0 | 0.0 | 0.00 | 0.89 | 0.89 | 78 | 1006.6 |
| 20260501230947 | 7 | 270 | 4.8 | 4.8 | 0.00 | 0.89 | 0.89 | 77 | 1006.9 |
| 20260501230445 | 7 | 267 | 3.2 | 3.2 | 0.00 | 0.89 | 0.89 | 78 | 1006.8 |
| 20260501225943 | 7 | 310 | 3.2 | 4.8 | 0.00 | 0.89 | 0.89 | 76 | 1006.7 |
| 20260501225440 | 7 | 268 | 3.2 | 3.2 | 0.00 | 0.89 | 0.89 | 77 | 1006.9 |
| 20260501224936 | 7 | 280 | 1.6 | 1.6 | 0.00 | 0.89 | 0.89 | 78 | 1006.8 |
| 20260501224433 | 7 | 292 | 4.8 | 4.8 | 0.00 | 0.89 | 0.89 | 76 | 1006.9 |
| 20260501223930 | 7 | 267 | 3.2 | 4.8 | 0.00 | 0.89 | 0.89 | 77 | 1007.0 |
| 20260501223426 | 7 | 288 | 4.8 | 4.8 | 0.00 | 0.89 | 0.89 | 76 | 1006.9 |
| 20260501222922 | 7 | 325 | 3.2 | 4.8 | 0.00 | 0.89 | 0.89 | 78 | 1007.1 |
| 20260501222420 | 7 | 260 | 0.0 | 0.0 | 0.00 | 0.89 | 0.89 | 78 | 1006.9 |
| 20260501221916 | 7 | 263 | 0.0 | 0.0 | 0.00 | 0.89 | 0.89 | 78 | 1006.8 |
| 20260501221413 | 7 | 311 | 1.6 | 3.2 | 0.00 | 0.89 | 0.89 | 78 | 1007.1 |
| 20260501220911 | 7 | 268 | 3.2 | 3.2 | 0.00 | 0.89 | 0.89 | 79 | 1006.6 |
| 20260501220408 | 7 | 266 | 0.0 | 1.6 | 0.00 | 0.89 | 0.89 | 80 | 1006.7 |
| 20260501215904 | 7 | 277 | 3.2 | 3.2 | 0.00 | 0.89 | 0.89 | 79 | 1006.6 |
| 20260501215401 | 7 | 272 | 1.6 | 1.6 | 0.00 | 0.89 | 0.89 | 78 | 1006.4 |
| 20260501214856 | 7 | 284 | 4.8 | 4.8 | 0.00 | 0.89 | 0.89 | 82 | 1006.5 |
| 20260501214352 | 7 | 281 | 3.2 | 3.2 | 0.00 | 0.89 | 0.89 | 83 | 1006.4 |
| 20260501213848 | 7 | 275 | 1.6 | 1.6 | 0.00 | 0.89 | 0.89 | 84 | 1006.3 |
| 20260501213345 | 7 | 265 | 0.0 | 1.6 | 0.00 | 0.89 | 0.89 | 85 | 1006.2 |
| 20260501212840 | 6 | 278 | 3.2 | 3.2 | 0.00 | 0.89 | 0.89 | 86 | 1006.5 |
| 20260501212337 | 6 | 262 | 4.8 | 4.8 | 0.00 | 0.89 | 0.89 | 87 | 1006.4 |
| 20260501211834 | 6 | 260 | 0.0 | 1.6 | 0.00 | 0.89 | 0.89 | 88 | 1006.5 |
| 20260501211332 | 6 | 256 | 0.0 | 1.6 | 0.00 | 0.89 | 0.89 | 88 | 1006.2 |
| 20260501210828 | 6 | 286 | 3.2 | 3.2 | 0.00 | 0.89 | 0.89 | 88 | 1006.1 |
| 20260501210325 | 6 | 284 | 4.8 | 4.8 | 0.00 | 0.89 | 0.89 | 88 | 1006.0 |
| 20260501205816 | 6 | 310 | 6.4 | 8.0 | 0.00 | 0.89 | 0.89 | 88 | 1005.8 |
| 20260501205313 | 6 | 296 | 3.2 | 4.8 | 0.00 | 0.89 | 0.89 | 88 | 1006.1 |
| 20260501204810 | 6 | 295 | 4.8 | 9.7 | 0.00 | 0.89 | 0.89 | 88 | 1006.0 |
| 20260501204307 | 6 | 265 | 0.0 | 0.0 | 0.00 | 0.89 | 0.89 | 89 | 1005.7 |
| 20260501203803 | 6 | 265 | 0.0 | 0.0 | 0.00 | 0.89 | 0.89 | 89 | 1005.8 |
| 20260501203301 | 6 | 283 | 1.6 | 1.6 | 0.00 | 0.89 | 0.89 | 89 | 1005.8 |
| 20260501202757 | 6 | 282 | 1.6 | 3.2 | 0.00 | 0.89 | 0.89 | 89 | 1005.7 |
| 20260501202254 | 6 | 263 | 1.6 | 1.6 | 0.00 | 0.89 | 0.89 | 90 | 1005.6 |
| 20260501201751 | 5 | 322 | 4.8 | 8.0 | 0.00 | 0.89 | 0.89 | 90 | 1005.5 |
| 20260501201248 | 5 | 288 | 4.8 | 8.0 | 0.00 | 0.89 | 0.89 | 90 | 1005.6 |
| 20260501200744 | 5 | 272 | 3.2 | 8.0 | 0.00 | 0.89 | 0.89 | 90 | 1005.4 |
| 20260501200242 | 6 | 275 | 8.0 | 9.7 | 0.00 | 0.89 | 0.89 | 91 | 1005.3 |
| 20260501195739 | 5 | 267 | 3.2 | 3.2 | 0.00 | 0.89 | 0.89 | 92 | 1005.3 |
| 20260501195235 | 6 | 262 | 4.8 | 8.0 | 0.00 | 0.89 | 0.89 | 92 | 1005.3 |
| 20260501194731 | 6 | 277 | 3.2 | 3.2 | 0.00 | 0.89 | 0.89 | 93 | 1005.1 |
| 20260501194227 | 6 | 289 | 1.6 | 1.6 | 0.00 | 0.89 | 0.89 | 93 | 1005.1 |
| 20260501193723 | 5 | 274 | 1.6 | 1.6 | 0.00 | 0.89 | 0.89 | 93 | 1005.2 |
| 20260501193222 | 5 | 302 | 1.6 | 3.2 | 0.00 | 0.89 | 0.89 | 94 | 1005.2 |
| 20260501192719 | 5 | 267 | 0.0 | 1.6 | 0.00 | 0.89 | 0.89 | 94 | 1005.1 |
| 20260501192216 | 5 | 294 | 3.2 | 3.2 | 0.00 | 0.89 | 0.89 | 94 | 1005.1 |
| 20260501191713 | 5 | 271 | 3.2 | 3.2 | 0.00 | 0.89 | 0.89 | 94 | 1005.1 |
| 20260501191211 | 5 | 292 | 6.4 | 8.0 | 0.18 | 0.89 | 0.89 | 94 | 1005.0 |
| 20260501190707 | 5 | 256 | 3.2 | 3.2 | 0.30 | 0.89 | 0.89 | 94 | 1005.1 |
| 20260501190202 | 5 | 269 | 1.6 | 1.6 | 0.48 | 0.86 | 0.86 | 94 | 1005.1 |
| 20260501185659 | 5 | 289 | 3.2 | 3.2 | 0.48 | 0.84 | 0.84 | 94 | 1005.0 |
| 20260501185155 | 5 | 271 | 1.6 | 1.6 | 0.00 | 0.76 | 0.76 | 93 | 1004.9 |
| 20260501184650 | 5 | 261 | 0.0 | 1.6 | 0.00 | 0.76 | 0.76 | 93 | 1004.7 |
| 20260501184145 | 5 | 275 | 4.8 | 8.0 | 0.00 | 0.76 | 0.76 | 93 | 1004.5 |
| 20260501183642 | 5 | 293 | 4.8 | 4.8 | 0.18 | 0.76 | 0.76 | 94 | 1004.5 |
| 20260501183138 | 5 | 283 | 3.2 | 4.8 | 0.18 | 0.76 | 0.76 | 93 | 1004.6 |
| 20260501182635 | 5 | 274 | 4.8 | 4.8 | 0.13 | 0.74 | 0.74 | 93 | 1004.5 |
| 20260501182132 | 6 | 323 | 9.7 | 12.9 | 0.30 | 0.74 | 0.74 | 93 | 1004.2 |
| 20260501181629 | 7 | 293 | 6.4 | 8.0 | 0.30 | 0.71 | 0.71 | 93 | 1004.0 |
| 20260501181126 | 7 | 275 | 0.0 | 1.6 | 0.13 | 0.69 | 0.69 | 93 | 1003.9 |
| 20260501180624 | 7 | 268 | 0.0 | 1.6 | 0.18 | 0.66 | 0.66 | 93 | 1003.7 |
| 20260501180120 | 7 | 268 | 0.0 | 0.0 | 0.18 | 0.66 | 0.66 | 93 | 1004.0 |
| 20260501175617 | 7 | 273 | 0.0 | 1.6 | 0.00 | 0.64 | 0.64 | 93 | 1003.8 |
| 20260501175114 | 7 | 270 | 0.0 | 0.0 | 0.00 | 0.64 | 0.64 | 93 | 1003.8 |
| 20260501174610 | 7 | 270 | 0.0 | 0.0 | 0.00 | 0.64 | 0.64 | 92 | 1003.8 |
| 20260501174108 | 7 | 270 | 0.0 | 1.6 | 0.00 | 0.64 | 0.64 | 92 | 1003.6 |
| 20260501173605 | 7 | 262 | 0.0 | 0.0 | 0.00 | 0.64 | 0.64 | 92 | 1003.7 |
| 20260501173102 | 7 | 262 | 0.0 | 1.6 | 0.13 | 0.64 | 0.64 | 93 | 1003.8 |
| 20260501172557 | 7 | 270 | 0.0 | 0.0 | 0.13 | 0.64 | 0.64 | 93 | 1003.7 |
| 20260501172053 | 7 | 267 | 0.0 | 0.0 | 0.00 | 0.61 | 0.61 | 93 | 1004.0 |
| 20260501171549 | 7 | 288 | 1.6 | 1.6 | 0.00 | 0.61 | 0.61 | 93 | 1003.8 |
| 20260501171046 | 7 | 279 | 1.6 | 1.6 | 0.18 | 0.61 | 0.61 | 93 | 1003.6 |
| 20260501170543 | 7 | 271 | 0.0 | 0.0 | 0.18 | 0.61 | 0.61 | 93 | 1003.9 |
| 20260501170040 | 7 | 267 | 0.0 | 0.0 | 0.00 | 0.58 | 0.58 | 93 | 1004.0 |
| 20260501165538 | 7 | 275 | 0.0 | 1.6 | 0.13 | 0.58 | 0.58 | 93 | 1004.0 |
| 20260501165035 | 7 | 262 | 0.0 | 0.0 | 0.13 | 0.58 | 0.58 | 94 | 1003.8 |
| 20260501164533 | 7 | 262 | 0.0 | 0.0 | 0.00 | 0.56 | 0.56 | 94 | 1004.0 |
| 20260501164029 | 7 | 262 | 0.0 | 0.0 | 0.00 | 0.56 | 0.56 | 94 | 1003.9 |
| 20260501163526 | 6 | 271 | 0.0 | 0.0 | 0.00 | 0.56 | 0.56 | 94 | 1003.9 |
| 20260501163023 | 6 | 269 | 0.0 | 0.0 | 0.18 | 0.56 | 0.56 | 94 | 1004.1 |
| 20260501162519 | 7 | 269 | 0.0 | 0.0 | 0.18 | 0.56 | 0.56 | 94 | 1003.8 |
| 20260501162016 | 6 | 269 | 0.0 | 0.0 | 0.00 | 0.53 | 0.53 | 94 | 1004.0 |
| 20260501161513 | 6 | 265 | 0.0 | 0.0 | 0.00 | 0.53 | 0.53 | 94 | 1003.9 |
| 20260501161010 | 6 | 267 | 0.0 | 0.0 | 0.00 | 0.53 | 0.53 | 94 | 1004.0 |
| 20260501160507 | 6 | 261 | 0.0 | 0.0 | 0.00 | 0.53 | 0.53 | 94 | 1003.9 |
| 20260501160004 | 6 | 269 | 1.6 | 1.6 | 0.00 | 0.53 | 0.53 | 95 | 1003.8 |
| 20260501155500 | 6 | 259 | 1.6 | 1.6 | 0.00 | 0.53 | 0.53 | 95 | 1004.0 |